Year,Month,Day,Hour,Minute,Value (Times are PST for temperature in C)
2018,10,22,00,00,3.90
2018,10,22,00,01,3.90
2018,10,22,00,02,3.90
2018,10,22,00,03,3.90
2018,10,22,00,04,3.80
2018,10,22,00,05,3.90
2018,10,22,00,06,3.80
2018,10,22,00,07,3.80
2018,10,22,00,08,3.80
2018,10,22,00,09,3.80
2018,10,22,00,10,3.80
2018,10,22,00,11,3.80
2018,10,22,00,12,3.80
2018,10,22,00,13,3.80
2018,10,22,00,14,3.80
2018,10,22,00,15,3.80
2018,10,22,00,16,3.80
2018,10,22,00,17,3.80
2018,10,22,00,18,3.80
2018,10,22,00,19,3.80
2018,10,22,00,20,3.80
2018,10,22,00,21,3.80
2018,10,22,00,22,3.70
2018,10,22,00,23,3.70
2018,10,22,00,24,3.70
2018,10,22,00,25,3.70
2018,10,22,00,26,3.70
2018,10,22,00,27,3.70
2018,10,22,00,28,3.70
2018,10,22,00,29,3.70
2018,10,22,00,30,3.70
2018,10,22,00,31,3.60
2018,10,22,00,32,3.60
2018,10,22,00,33,3.60
2018,10,22,00,34,3.60
2018,10,22,00,35,3.60
2018,10,22,00,36,3.60
2018,10,22,00,37,3.60
2018,10,22,00,38,3.60
2018,10,22,00,39,3.60
2018,10,22,00,40,3.60
2018,10,22,00,41,3.60
2018,10,22,00,42,3.50
2018,10,22,00,43,3.50
2018,10,22,00,44,3.50
2018,10,22,00,45,3.50
2018,10,22,00,46,3.50
2018,10,22,00,47,3.50
2018,10,22,00,48,3.50
2018,10,22,00,49,3.50
2018,10,22,00,50,3.50
2018,10,22,00,51,3.50
2018,10,22,00,52,3.50
2018,10,22,00,53,3.50
2018,10,22,00,54,3.40
2018,10,22,00,55,3.40
2018,10,22,00,56,3.40
2018,10,22,00,57,3.40
2018,10,22,00,58,3.40
2018,10,22,00,59,3.40
2018,10,22,01,00,3.40
2018,10,22,01,01,3.40
2018,10,22,01,02,3.40
2018,10,22,01,03,3.30
2018,10,22,01,04,3.30
2018,10,22,01,05,3.30
2018,10,22,01,06,3.30
2018,10,22,01,07,3.30
2018,10,22,01,08,3.30
2018,10,22,01,09,3.30
2018,10,22,01,10,3.30
2018,10,22,01,11,3.30
2018,10,22,01,12,3.30
2018,10,22,01,13,3.30
2018,10,22,01,14,3.30
2018,10,22,01,15,3.30
2018,10,22,01,16,3.20
2018,10,22,01,17,3.20
2018,10,22,01,18,3.20
2018,10,22,01,19,3.20
2018,10,22,01,20,3.20
2018,10,22,01,21,3.20
2018,10,22,01,22,3.20
2018,10,22,01,23,3.20
2018,10,22,01,24,3.20
2018,10,22,01,25,3.20
2018,10,22,01,26,3.20
2018,10,22,01,27,3.20
2018,10,22,01,28,3.20
2018,10,22,01,29,3.10
2018,10,22,01,30,3.20
2018,10,22,01,31,3.10
2018,10,22,01,32,3.10
2018,10,22,01,33,3.10
2018,10,22,01,34,3.10
2018,10,22,01,35,3.10
2018,10,22,01,36,3.10
2018,10,22,01,37,3.10
2018,10,22,01,38,3.10
2018,10,22,01,39,3.00
2018,10,22,01,40,3.00
2018,10,22,01,41,3.00
2018,10,22,01,42,3.00
2018,10,22,01,43,3.00
2018,10,22,01,44,3.00
2018,10,22,01,45,3.00
2018,10,22,01,46,3.00
2018,10,22,01,47,3.00
2018,10,22,01,48,3.00
2018,10,22,01,49,3.00
2018,10,22,01,50,2.90
2018,10,22,01,51,2.90
2018,10,22,01,52,2.90
2018,10,22,01,53,2.90
2018,10,22,01,54,2.90
2018,10,22,01,55,2.90
2018,10,22,01,56,2.90
2018,10,22,01,57,2.90
2018,10,22,01,58,2.90
2018,10,22,01,59,2.90
2018,10,22,02,00,2.90
2018,10,22,02,01,2.90
2018,10,22,02,02,2.80
2018,10,22,02,03,2.80
2018,10,22,02,04,2.80
2018,10,22,02,05,2.80
2018,10,22,02,06,2.80
2018,10,22,02,07,2.80
2018,10,22,02,08,2.80
2018,10,22,02,09,2.70
2018,10,22,02,10,2.70
2018,10,22,02,11,2.70
2018,10,22,02,12,2.70
2018,10,22,02,13,2.70
2018,10,22,02,14,2.70
2018,10,22,02,15,2.70
2018,10,22,02,16,2.70
2018,10,22,02,17,2.70
2018,10,22,02,18,2.70
2018,10,22,02,19,2.70
2018,10,22,02,20,2.70
2018,10,22,02,21,2.70
2018,10,22,02,22,2.70
2018,10,22,02,23,2.70
2018,10,22,02,24,2.70
2018,10,22,02,25,2.60
2018,10,22,02,26,2.60
2018,10,22,02,27,2.60
2018,10,22,02,28,2.60
2018,10,22,02,29,2.60
2018,10,22,02,30,2.60
2018,10,22,02,31,2.60
2018,10,22,02,32,2.60
2018,10,22,02,33,2.60
2018,10,22,02,34,2.60
2018,10,22,02,35,2.60
2018,10,22,02,36,2.60
2018,10,22,02,37,2.60
2018,10,22,02,38,2.60
2018,10,22,02,39,2.60
2018,10,22,02,40,2.60
2018,10,22,02,41,2.50
2018,10,22,02,42,2.50
2018,10,22,02,43,2.50
2018,10,22,02,44,2.50
2018,10,22,02,45,2.50
2018,10,22,02,46,2.50
2018,10,22,02,47,2.50
2018,10,22,02,48,2.50
2018,10,22,02,49,2.50
2018,10,22,02,50,2.50
2018,10,22,02,51,2.50
2018,10,22,02,52,2.50
2018,10,22,02,53,2.40
2018,10,22,02,54,2.40
2018,10,22,02,55,2.40
2018,10,22,02,56,2.40
2018,10,22,02,57,2.40
2018,10,22,02,58,2.40
2018,10,22,02,59,2.40
2018,10,22,03,00,2.40
2018,10,22,03,01,2.40
2018,10,22,03,02,2.40
2018,10,22,03,03,2.40
2018,10,22,03,04,2.40
2018,10,22,03,05,2.40
2018,10,22,03,06,2.30
2018,10,22,03,07,2.30
2018,10,22,03,08,2.30
2018,10,22,03,09,2.30
2018,10,22,03,10,2.30
2018,10,22,03,11,2.30
2018,10,22,03,12,2.30
2018,10,22,03,13,2.30
2018,10,22,03,14,2.30
2018,10,22,03,15,2.30
2018,10,22,03,16,2.30
2018,10,22,03,17,2.30
2018,10,22,03,18,2.30
2018,10,22,03,19,2.30
2018,10,22,03,20,2.20
2018,10,22,03,21,2.20
2018,10,22,03,22,2.20
2018,10,22,03,23,2.20
2018,10,22,03,24,2.20
2018,10,22,03,25,2.20
2018,10,22,03,26,2.20
2018,10,22,03,27,2.20
2018,10,22,03,28,2.20
2018,10,22,03,29,2.20
2018,10,22,03,30,2.20
2018,10,22,03,31,2.20
2018,10,22,03,32,2.20
2018,10,22,03,33,2.20
2018,10,22,03,34,2.20
2018,10,22,03,35,2.20
2018,10,22,03,36,2.20
2018,10,22,03,37,2.20
2018,10,22,03,38,2.20
2018,10,22,03,39,2.20
2018,10,22,03,40,2.20
2018,10,22,03,41,2.20
2018,10,22,03,42,2.20
2018,10,22,03,43,2.20
2018,10,22,03,44,2.20
2018,10,22,03,45,2.20
2018,10,22,03,46,2.20
2018,10,22,03,47,2.20
2018,10,22,03,48,2.20
2018,10,22,03,49,2.20
2018,10,22,03,50,2.20
2018,10,22,03,51,2.20
2018,10,22,03,52,2.20
2018,10,22,03,53,2.10
2018,10,22,03,54,2.10
2018,10,22,03,55,2.10
2018,10,22,03,56,2.10
2018,10,22,03,57,2.10
2018,10,22,03,58,2.10
2018,10,22,03,59,2.10
2018,10,22,04,00,2.10
2018,10,22,04,01,2.10
2018,10,22,04,02,2.10
2018,10,22,04,03,2.10
2018,10,22,04,04,2.00
2018,10,22,04,05,2.00
2018,10,22,04,06,2.00
2018,10,22,04,07,2.00
2018,10,22,04,08,2.00
2018,10,22,04,09,2.00
2018,10,22,04,10,2.00
2018,10,22,04,11,2.00
2018,10,22,04,12,2.00
2018,10,22,04,13,2.00
2018,10,22,04,14,1.90
2018,10,22,04,15,1.90
2018,10,22,04,16,1.90
2018,10,22,04,17,1.90
2018,10,22,04,18,1.90
2018,10,22,04,19,1.90
2018,10,22,04,20,1.90
2018,10,22,04,21,1.90
2018,10,22,04,22,1.90
2018,10,22,04,23,1.90
2018,10,22,04,24,1.90
2018,10,22,04,25,1.80
2018,10,22,04,26,1.80
2018,10,22,04,27,1.80
2018,10,22,04,28,1.80
2018,10,22,04,29,1.80
2018,10,22,04,30,1.80
2018,10,22,04,31,1.80
2018,10,22,04,32,1.80
2018,10,22,04,33,1.80
2018,10,22,04,34,1.80
2018,10,22,04,35,1.80
2018,10,22,04,36,1.80
2018,10,22,04,37,1.80
2018,10,22,04,38,1.80
2018,10,22,04,39,1.80
2018,10,22,04,40,1.70
2018,10,22,04,41,1.70
2018,10,22,04,42,1.70
2018,10,22,04,43,1.70
2018,10,22,04,44,1.80
2018,10,22,04,45,1.80
2018,10,22,04,46,1.80
2018,10,22,04,47,1.70
2018,10,22,04,48,1.70
2018,10,22,04,49,1.70
2018,10,22,04,50,1.70
2018,10,22,04,51,1.80
2018,10,22,04,52,1.80
2018,10,22,04,53,1.80
2018,10,22,04,54,1.70
2018,10,22,04,55,1.70
2018,10,22,04,56,1.80
2018,10,22,04,57,1.80
2018,10,22,04,58,1.80
2018,10,22,04,59,1.80
2018,10,22,05,00,1.80
2018,10,22,05,01,1.80
2018,10,22,05,02,1.80
2018,10,22,05,03,1.80
2018,10,22,05,04,1.80
2018,10,22,05,05,1.80
2018,10,22,05,06,1.80
2018,10,22,05,07,1.80
2018,10,22,05,08,1.80
2018,10,22,05,09,1.80
2018,10,22,05,10,1.80
2018,10,22,05,11,1.80
2018,10,22,05,12,1.80
2018,10,22,05,13,1.80
2018,10,22,05,14,1.80
2018,10,22,05,15,1.80
2018,10,22,05,16,1.80
2018,10,22,05,17,1.80
2018,10,22,05,18,1.70
2018,10,22,05,19,1.70
2018,10,22,05,20,1.70
2018,10,22,05,21,1.70
2018,10,22,05,22,1.70
2018,10,22,05,23,1.70
2018,10,22,05,24,1.70
2018,10,22,05,25,1.70
2018,10,22,05,26,1.70
2018,10,22,05,27,1.70
2018,10,22,05,28,1.70
2018,10,22,05,29,1.70
2018,10,22,05,30,1.70
2018,10,22,05,31,1.70
2018,10,22,05,32,1.70
2018,10,22,05,33,1.70
2018,10,22,05,34,1.70
2018,10,22,05,35,1.70
2018,10,22,05,36,1.70
2018,10,22,05,37,1.60
2018,10,22,05,38,1.60
2018,10,22,05,39,1.60
2018,10,22,05,40,1.60
2018,10,22,05,41,1.60
2018,10,22,05,42,1.60
2018,10,22,05,43,1.60
2018,10,22,05,44,1.60
2018,10,22,05,45,1.60
2018,10,22,05,46,1.60
2018,10,22,05,47,1.60
2018,10,22,05,48,1.60
2018,10,22,05,49,1.60
2018,10,22,05,50,1.70
2018,10,22,05,51,1.60
2018,10,22,05,52,1.70
2018,10,22,05,53,1.70
2018,10,22,05,54,1.70
2018,10,22,05,55,1.70
2018,10,22,05,56,1.70
2018,10,22,05,57,1.70
2018,10,22,05,58,1.60
2018,10,22,05,59,1.60
2018,10,22,06,00,1.60
2018,10,22,06,01,1.60
2018,10,22,06,02,1.60
2018,10,22,06,03,1.60
2018,10,22,06,04,1.60
2018,10,22,06,05,1.60
2018,10,22,06,06,1.60
2018,10,22,06,07,1.60
2018,10,22,06,08,1.60
2018,10,22,06,09,1.60
2018,10,22,06,10,1.60
2018,10,22,06,11,1.50
2018,10,22,06,12,1.50
2018,10,22,06,13,1.50
2018,10,22,06,14,1.50
2018,10,22,06,15,1.50
2018,10,22,06,16,1.50
2018,10,22,06,17,1.50
2018,10,22,06,18,1.40
2018,10,22,06,19,1.40
2018,10,22,06,20,1.40
2018,10,22,06,21,1.40
2018,10,22,06,22,1.40
2018,10,22,06,23,1.40
2018,10,22,06,24,1.40
2018,10,22,06,25,1.30
2018,10,22,06,26,1.30
2018,10,22,06,27,1.30
2018,10,22,06,28,1.30
2018,10,22,06,29,1.30
2018,10,22,06,30,1.30
2018,10,22,06,31,1.30
2018,10,22,06,32,1.30
2018,10,22,06,33,1.30
2018,10,22,06,34,1.20
2018,10,22,06,35,1.20
2018,10,22,06,36,1.20
2018,10,22,06,37,1.20
2018,10,22,06,38,1.20
2018,10,22,06,39,1.20
2018,10,22,06,40,1.20
2018,10,22,06,41,1.20
2018,10,22,06,42,1.20
2018,10,22,06,43,1.20
2018,10,22,06,44,1.20
2018,10,22,06,45,1.20
2018,10,22,06,46,1.20
2018,10,22,06,47,1.20
2018,10,22,06,48,1.20
2018,10,22,06,49,1.10
2018,10,22,06,50,1.10
2018,10,22,06,51,1.10
2018,10,22,06,52,1.10
2018,10,22,06,53,1.10
2018,10,22,06,54,1.10
2018,10,22,06,55,1.10
2018,10,22,06,56,1.10
2018,10,22,06,57,1.10
2018,10,22,06,58,1.10
2018,10,22,06,59,1.10
2018,10,22,07,00,1.10
2018,10,22,07,01,1.10
2018,10,22,07,02,1.10
2018,10,22,07,03,1.10
2018,10,22,07,04,1.10
2018,10,22,07,05,1.10
2018,10,22,07,06,1.10
2018,10,22,07,07,1.10
2018,10,22,07,08,1.10
2018,10,22,07,09,1.00
2018,10,22,07,10,1.00
2018,10,22,07,11,1.00
2018,10,22,07,12,1.00
2018,10,22,07,13,1.00
2018,10,22,07,14,1.00
2018,10,22,07,15,1.00
2018,10,22,07,16,1.00
2018,10,22,07,17,1.00
2018,10,22,07,18,1.00
2018,10,22,07,19,0.90
2018,10,22,07,20,0.90
2018,10,22,07,21,0.90
2018,10,22,07,22,0.90
2018,10,22,07,23,0.90
2018,10,22,07,24,0.90
2018,10,22,07,25,0.90
2018,10,22,07,26,0.90
2018,10,22,07,27,0.90
2018,10,22,07,28,0.90
2018,10,22,07,29,0.90
2018,10,22,07,30,0.90
2018,10,22,07,31,0.90
2018,10,22,07,32,0.90
2018,10,22,07,33,0.90
2018,10,22,07,34,0.90
2018,10,22,07,35,0.90
2018,10,22,07,36,0.90
2018,10,22,07,37,0.90
2018,10,22,07,38,0.90
2018,10,22,07,39,0.80
2018,10,22,07,40,0.80
2018,10,22,07,41,0.80
2018,10,22,07,42,0.80
2018,10,22,07,43,0.80
2018,10,22,07,44,0.80
2018,10,22,07,45,0.80
2018,10,22,07,46,0.80
2018,10,22,07,47,0.80
2018,10,22,07,48,0.90
2018,10,22,07,49,0.90
2018,10,22,07,50,0.90
2018,10,22,07,51,0.90
2018,10,22,07,52,0.90
2018,10,22,07,53,0.90
2018,10,22,07,54,0.90
2018,10,22,07,55,0.90
2018,10,22,07,56,0.90
2018,10,22,07,57,0.90
2018,10,22,07,58,0.90
2018,10,22,07,59,0.90
2018,10,22,08,00,0.80
2018,10,22,08,01,0.80
2018,10,22,08,02,0.80
2018,10,22,08,03,0.80
2018,10,22,08,04,0.80
2018,10,22,08,05,0.90
2018,10,22,08,06,0.90
2018,10,22,08,07,0.90
2018,10,22,08,08,0.90
2018,10,22,08,09,0.90
2018,10,22,08,10,0.90
2018,10,22,08,11,0.90
2018,10,22,08,12,0.90
2018,10,22,08,13,0.90
2018,10,22,08,14,0.90
2018,10,22,08,15,0.90
2018,10,22,08,16,0.90
2018,10,22,08,17,0.90
2018,10,22,08,18,0.90
2018,10,22,08,19,0.90
2018,10,22,08,20,0.80
2018,10,22,08,21,0.80
2018,10,22,08,22,0.80
2018,10,22,08,23,0.80
2018,10,22,08,24,0.90
2018,10,22,08,25,0.90
2018,10,22,08,26,0.80
2018,10,22,08,27,0.90
2018,10,22,08,28,0.80
2018,10,22,08,29,0.90
2018,10,22,08,30,0.90
2018,10,22,08,31,0.80
2018,10,22,08,32,0.80
2018,10,22,08,33,0.80
2018,10,22,08,34,0.80
2018,10,22,08,35,0.80
2018,10,22,08,36,0.80
2018,10,22,08,37,0.80
2018,10,22,08,38,0.80
2018,10,22,08,39,0.80
2018,10,22,08,40,0.80
2018,10,22,08,41,0.90
2018,10,22,08,42,0.90
2018,10,22,08,43,0.90
2018,10,22,08,44,0.90
2018,10,22,08,45,0.90
2018,10,22,08,46,0.90
2018,10,22,08,47,0.90
2018,10,22,08,48,0.90
2018,10,22,08,49,0.90
2018,10,22,08,50,0.90
2018,10,22,08,51,0.90
2018,10,22,08,52,0.90
2018,10,22,08,53,0.90
2018,10,22,08,54,0.90
2018,10,22,08,55,0.90
2018,10,22,08,56,0.90
2018,10,22,08,57,0.90
2018,10,22,08,58,0.90
2018,10,22,08,59,0.90
2018,10,22,09,00,0.90
2018,10,22,09,01,0.90
2018,10,22,09,02,0.90
2018,10,22,09,03,1.00
2018,10,22,09,04,1.00
2018,10,22,09,05,1.00
2018,10,22,09,06,1.00
2018,10,22,09,07,1.10
2018,10,22,09,08,1.10
2018,10,22,09,09,1.10
2018,10,22,09,10,1.20
2018,10,22,09,11,1.20
2018,10,22,09,12,1.20
2018,10,22,09,13,1.30
2018,10,22,09,14,1.30
2018,10,22,09,15,1.30
2018,10,22,09,16,1.40
2018,10,22,09,17,1.50
2018,10,22,09,18,1.60
2018,10,22,09,19,1.70
2018,10,22,09,20,1.80
2018,10,22,09,21,1.90
2018,10,22,09,22,1.90
2018,10,22,09,23,2.00
2018,10,22,09,24,2.10
2018,10,22,09,25,2.20
2018,10,22,09,26,2.30
2018,10,22,09,27,2.30
2018,10,22,09,28,2.40
2018,10,22,09,29,2.50
2018,10,22,09,30,2.50
2018,10,22,09,31,2.60
2018,10,22,09,32,2.60
2018,10,22,09,33,2.60
2018,10,22,09,34,2.70
2018,10,22,09,35,2.70
2018,10,22,09,36,2.70
2018,10,22,09,37,2.70
2018,10,22,09,38,2.70
2018,10,22,09,39,2.70
2018,10,22,09,40,2.80
2018,10,22,09,41,2.80
2018,10,22,09,42,2.90
2018,10,22,09,43,2.90
2018,10,22,09,44,2.90
2018,10,22,09,45,3.00
2018,10,22,09,46,3.00
2018,10,22,09,47,3.10
2018,10,22,09,48,3.10
2018,10,22,09,49,3.10
2018,10,22,09,50,3.20
2018,10,22,09,51,3.20
2018,10,22,09,52,3.20
2018,10,22,09,53,3.30
2018,10,22,09,54,3.30
2018,10,22,09,55,3.40
2018,10,22,09,56,3.50
2018,10,22,09,57,3.60
2018,10,22,09,58,3.60
2018,10,22,09,59,3.70
2018,10,22,10,00,3.70
2018,10,22,10,01,3.70
2018,10,22,10,02,3.70
2018,10,22,10,03,3.70
2018,10,22,10,04,3.80
2018,10,22,10,05,3.80
2018,10,22,10,06,3.80
2018,10,22,10,07,3.80
2018,10,22,10,08,3.90
2018,10,22,10,09,3.90
2018,10,22,10,10,3.90
2018,10,22,10,11,4.00
2018,10,22,10,12,4.00
2018,10,22,10,13,4.10
2018,10,22,10,14,4.20
2018,10,22,10,15,4.20
2018,10,22,10,16,4.30
2018,10,22,10,17,4.30
2018,10,22,10,18,4.40
2018,10,22,10,19,4.50
2018,10,22,10,20,4.60
2018,10,22,10,21,4.70
2018,10,22,10,22,4.80
2018,10,22,10,23,4.90
2018,10,22,10,24,5.00
2018,10,22,10,25,5.10
2018,10,22,10,26,5.20
2018,10,22,10,27,5.20
2018,10,22,10,28,5.30
2018,10,22,10,29,5.30
2018,10,22,10,30,5.30
2018,10,22,10,31,5.40
2018,10,22,10,32,5.50
2018,10,22,10,33,5.50
2018,10,22,10,34,5.60
2018,10,22,10,35,5.70
2018,10,22,10,36,5.80
2018,10,22,10,37,5.80
2018,10,22,10,38,5.90
2018,10,22,10,39,6.00
2018,10,22,10,40,6.00
2018,10,22,10,41,6.10
2018,10,22,10,42,6.20
2018,10,22,10,43,6.20
2018,10,22,10,44,6.30
2018,10,22,10,45,6.40
2018,10,22,10,46,6.40
2018,10,22,10,47,6.50
2018,10,22,10,48,6.50
2018,10,22,10,49,6.60
2018,10,22,10,50,6.70
2018,10,22,10,51,6.80
2018,10,22,10,52,6.80
2018,10,22,10,53,6.90
2018,10,22,10,54,7.00
2018,10,22,10,55,7.10
2018,10,22,10,56,7.20
2018,10,22,10,57,7.30
2018,10,22,10,58,7.30
2018,10,22,10,59,7.30
2018,10,22,11,00,7.40
2018,10,22,11,01,7.50
2018,10,22,11,02,7.60
2018,10,22,11,03,7.70
2018,10,22,11,04,7.80
2018,10,22,11,05,7.80
2018,10,22,11,06,7.90
2018,10,22,11,07,7.90
2018,10,22,11,08,7.90
2018,10,22,11,09,8.00
2018,10,22,11,10,8.00
2018,10,22,11,11,8.10
2018,10,22,11,12,8.20
2018,10,22,11,13,8.30
2018,10,22,11,14,8.40
2018,10,22,11,15,8.40
2018,10,22,11,16,8.50
2018,10,22,11,17,8.50
2018,10,22,11,18,8.60
2018,10,22,11,19,8.70
2018,10,22,11,20,8.80
2018,10,22,11,21,8.90
2018,10,22,11,22,8.90
2018,10,22,11,23,9.00
2018,10,22,11,24,9.10
2018,10,22,11,25,9.20
2018,10,22,11,26,9.30
2018,10,22,11,27,9.40
2018,10,22,11,28,9.40
2018,10,22,11,29,9.50
2018,10,22,11,30,9.50
2018,10,22,11,31,9.60
2018,10,22,11,32,9.70
2018,10,22,11,33,9.70
2018,10,22,11,34,9.80
2018,10,22,11,35,9.90
2018,10,22,11,36,9.90
2018,10,22,11,37,10.00
2018,10,22,11,38,10.10
2018,10,22,11,39,10.20
2018,10,22,11,40,10.30
2018,10,22,11,41,10.30
2018,10,22,11,42,10.40
2018,10,22,11,43,10.50
2018,10,22,11,44,10.50
2018,10,22,11,45,10.60
2018,10,22,11,46,10.70
2018,10,22,11,47,10.70
2018,10,22,11,48,10.70
2018,10,22,11,49,10.70
2018,10,22,11,50,10.80
2018,10,22,11,51,10.80
2018,10,22,11,52,10.80
2018,10,22,11,53,10.90
2018,10,22,11,54,10.90
2018,10,22,11,55,11.00
2018,10,22,11,56,11.00
2018,10,22,11,57,11.10
2018,10,22,11,58,11.10
2018,10,22,11,59,11.20
2018,10,22,12,00,11.20
2018,10,22,12,01,11.30
2018,10,22,12,02,11.30
2018,10,22,12,03,11.30
2018,10,22,12,04,11.40
2018,10,22,12,05,11.40
2018,10,22,12,06,11.40
2018,10,22,12,07,11.50
2018,10,22,12,08,11.50
2018,10,22,12,09,11.40
2018,10,22,12,10,11.40
2018,10,22,12,11,11.40
2018,10,22,12,12,11.40
2018,10,22,12,13,11.40
2018,10,22,12,14,11.40
2018,10,22,12,15,11.40
2018,10,22,12,16,11.40
2018,10,22,12,17,11.50
2018,10,22,12,18,11.50
2018,10,22,12,19,11.60
2018,10,22,12,20,11.60
2018,10,22,12,21,11.60
2018,10,22,12,22,11.70
2018,10,22,12,23,11.70
2018,10,22,12,24,11.80
2018,10,22,12,25,11.90
2018,10,22,12,26,12.00
2018,10,22,12,27,12.10
2018,10,22,12,28,12.20
2018,10,22,12,29,12.20
2018,10,22,12,30,12.30
2018,10,22,12,31,12.40
2018,10,22,12,32,12.50
2018,10,22,12,33,12.60
2018,10,22,12,34,12.70
2018,10,22,12,35,12.80
2018,10,22,12,36,12.90
2018,10,22,12,37,13.10
2018,10,22,12,38,13.20
2018,10,22,12,39,13.20
2018,10,22,12,40,13.20
2018,10,22,12,41,13.30
2018,10,22,12,42,13.30
2018,10,22,12,43,13.40
2018,10,22,12,44,13.40
2018,10,22,12,45,13.40
2018,10,22,12,46,13.50
2018,10,22,12,47,13.50
2018,10,22,12,48,13.60
2018,10,22,12,49,13.60
2018,10,22,12,50,13.70
2018,10,22,12,51,13.70
2018,10,22,12,52,13.80
2018,10,22,12,53,13.80
2018,10,22,12,54,13.80
2018,10,22,12,55,13.80
2018,10,22,12,56,13.90
2018,10,22,12,57,14.00
2018,10,22,12,58,14.10
2018,10,22,12,59,14.20
2018,10,22,13,00,14.30
2018,10,22,13,01,14.30
2018,10,22,13,02,14.40
2018,10,22,13,03,14.50
2018,10,22,13,04,14.60
2018,10,22,13,05,14.70
2018,10,22,13,06,14.70
2018,10,22,13,07,14.80
2018,10,22,13,08,14.80
2018,10,22,13,09,14.80
2018,10,22,13,10,14.90
2018,10,22,13,11,14.90
2018,10,22,13,12,15.00
2018,10,22,13,13,15.00
2018,10,22,13,14,15.10
2018,10,22,13,15,15.10
2018,10,22,13,16,15.10
2018,10,22,13,17,15.10
2018,10,22,13,18,15.20
2018,10,22,13,19,15.20
2018,10,22,13,20,15.30
2018,10,22,13,21,15.30
2018,10,22,13,22,15.40
2018,10,22,13,23,15.50
2018,10,22,13,24,15.60
2018,10,22,13,25,15.70
2018,10,22,13,26,15.80
2018,10,22,13,27,15.80
2018,10,22,13,28,15.90
2018,10,22,13,29,15.90
2018,10,22,13,30,15.90
2018,10,22,13,31,15.90
2018,10,22,13,32,16.00
2018,10,22,13,33,16.00
2018,10,22,13,34,16.00
2018,10,22,13,35,16.00
2018,10,22,13,36,16.00
2018,10,22,13,37,16.10
2018,10,22,13,38,16.10
2018,10,22,13,39,16.20
2018,10,22,13,40,16.30
2018,10,22,13,41,16.40
2018,10,22,13,42,16.50
2018,10,22,13,43,16.60
2018,10,22,13,44,16.70
2018,10,22,13,45,16.70
2018,10,22,13,46,16.70
2018,10,22,13,47,16.70
2018,10,22,13,48,16.70
2018,10,22,13,49,16.70
2018,10,22,13,50,16.80
2018,10,22,13,51,16.90
2018,10,22,13,52,17.00
2018,10,22,13,53,17.00
2018,10,22,13,54,17.10
2018,10,22,13,55,17.10
2018,10,22,13,56,17.20
2018,10,22,13,57,17.20
2018,10,22,13,58,17.20
2018,10,22,13,59,17.20
2018,10,22,14,00,17.20
2018,10,22,14,01,17.30
2018,10,22,14,02,17.30
2018,10,22,14,03,17.40
2018,10,22,14,04,17.40
2018,10,22,14,05,17.50
2018,10,22,14,06,17.60
2018,10,22,14,07,17.60
2018,10,22,14,08,17.70
2018,10,22,14,09,17.70
2018,10,22,14,10,17.70
2018,10,22,14,11,17.70
2018,10,22,14,12,17.70
2018,10,22,14,13,17.80
2018,10,22,14,14,17.80
2018,10,22,14,15,17.90
2018,10,22,14,16,18.00
2018,10,22,14,17,18.10
2018,10,22,14,18,18.10
2018,10,22,14,19,18.20
2018,10,22,14,20,18.20
2018,10,22,14,21,18.10
2018,10,22,14,22,18.00
2018,10,22,14,23,17.90
2018,10,22,14,24,17.90
2018,10,22,14,25,17.80
2018,10,22,14,26,17.80
2018,10,22,14,27,17.70
2018,10,22,14,28,17.70
2018,10,22,14,29,17.60
2018,10,22,14,30,17.50
2018,10,22,14,31,17.50
2018,10,22,14,32,17.40
2018,10,22,14,33,17.40
2018,10,22,14,34,17.50
2018,10,22,14,35,17.50
2018,10,22,14,36,17.50
2018,10,22,14,37,17.40
2018,10,22,14,38,17.30
2018,10,22,14,39,17.20
2018,10,22,14,40,17.20
2018,10,22,14,41,17.20
2018,10,22,14,42,17.10
2018,10,22,14,43,17.10
2018,10,22,14,44,17.10
2018,10,22,14,45,17.20
2018,10,22,14,46,17.20
2018,10,22,14,47,17.10
2018,10,22,14,48,17.00
2018,10,22,14,49,16.90
2018,10,22,14,50,16.80
2018,10,22,14,51,16.80
2018,10,22,14,52,16.80
2018,10,22,14,53,16.80
2018,10,22,14,54,16.70
2018,10,22,14,55,16.70
2018,10,22,14,56,16.70
2018,10,22,14,57,16.70
2018,10,22,14,58,16.60
2018,10,22,14,59,16.60
2018,10,22,15,00,16.60
2018,10,22,15,01,16.60
2018,10,22,15,02,16.50
2018,10,22,15,03,16.50
2018,10,22,15,04,16.40
2018,10,22,15,05,16.40
2018,10,22,15,06,16.30
2018,10,22,15,07,16.30
2018,10,22,15,08,16.40
2018,10,22,15,09,16.40
2018,10,22,15,10,16.40
2018,10,22,15,11,16.40
2018,10,22,15,12,16.40
2018,10,22,15,13,16.40
2018,10,22,15,14,16.30
2018,10,22,15,15,16.30
2018,10,22,15,16,16.30
2018,10,22,15,17,16.30
2018,10,22,15,18,16.30
2018,10,22,15,19,16.30
2018,10,22,15,20,16.20
2018,10,22,15,21,16.20
2018,10,22,15,22,16.20
2018,10,22,15,23,16.20
2018,10,22,15,24,16.20
2018,10,22,15,25,16.20
2018,10,22,15,26,16.10
2018,10,22,15,27,16.10
2018,10,22,15,28,16.10
2018,10,22,15,29,16.10
2018,10,22,15,30,16.10
2018,10,22,15,31,16.10
2018,10,22,15,32,16.00
2018,10,22,15,33,16.00
2018,10,22,15,34,16.00
2018,10,22,15,35,16.00
2018,10,22,15,36,16.00
2018,10,22,15,37,16.00
2018,10,22,15,38,16.00
2018,10,22,15,39,16.00
2018,10,22,15,40,16.00
2018,10,22,15,41,16.00
2018,10,22,15,42,16.00
2018,10,22,15,43,16.00
2018,10,22,15,44,16.00
2018,10,22,15,45,16.00
2018,10,22,15,46,16.10
2018,10,22,15,47,16.10
2018,10,22,15,48,16.10
2018,10,22,15,49,16.10
2018,10,22,15,50,16.10
2018,10,22,15,51,16.10
2018,10,22,15,52,16.10
2018,10,22,15,53,16.10
2018,10,22,15,54,16.10
2018,10,22,15,55,16.10
2018,10,22,15,56,16.10
2018,10,22,15,57,16.20
2018,10,22,15,58,16.20
2018,10,22,15,59,16.20
2018,10,22,16,00,16.20
2018,10,22,16,01,16.20
2018,10,22,16,02,16.10
2018,10,22,16,03,16.10
2018,10,22,16,04,16.10
2018,10,22,16,05,16.10
2018,10,22,16,06,16.10
2018,10,22,16,07,16.00
2018,10,22,16,08,16.00
2018,10,22,16,09,16.00
2018,10,22,16,10,15.90
2018,10,22,16,11,15.90
2018,10,22,16,12,15.90
2018,10,22,16,13,15.90
2018,10,22,16,14,15.80
2018,10,22,16,15,15.80
2018,10,22,16,16,15.80
2018,10,22,16,17,15.70
2018,10,22,16,18,15.70
2018,10,22,16,19,15.70
2018,10,22,16,20,15.70
2018,10,22,16,21,15.60
2018,10,22,16,22,15.60
2018,10,22,16,23,15.60
2018,10,22,16,24,15.50
2018,10,22,16,25,15.50
2018,10,22,16,26,15.40
2018,10,22,16,27,15.40
2018,10,22,16,28,15.30
2018,10,22,16,29,15.30
2018,10,22,16,30,15.30
2018,10,22,16,31,15.30
2018,10,22,16,32,15.20
2018,10,22,16,33,15.20
2018,10,22,16,34,15.20
2018,10,22,16,35,15.20
2018,10,22,16,36,15.20
2018,10,22,16,37,15.10
2018,10,22,16,38,15.10
2018,10,22,16,39,15.00
2018,10,22,16,40,15.00
2018,10,22,16,41,15.00
2018,10,22,16,42,14.90
2018,10,22,16,43,14.90
2018,10,22,16,44,14.80
2018,10,22,16,45,14.80
2018,10,22,16,46,14.80
2018,10,22,16,47,14.80
2018,10,22,16,48,14.70
2018,10,22,16,49,14.70
2018,10,22,16,50,14.70
2018,10,22,16,51,14.60
2018,10,22,16,52,14.50
2018,10,22,16,53,14.50
2018,10,22,16,54,14.40
2018,10,22,16,55,14.30
2018,10,22,16,56,14.30
2018,10,22,16,57,14.20
2018,10,22,16,58,14.20
2018,10,22,16,59,14.10
2018,10,22,17,00,14.10
2018,10,22,17,01,14.00
2018,10,22,17,02,14.00
2018,10,22,17,03,13.90
2018,10,22,17,04,13.90
2018,10,22,17,05,13.90
2018,10,22,17,06,13.90
2018,10,22,17,07,13.80
2018,10,22,17,08,13.80
2018,10,22,17,09,13.80
2018,10,22,17,10,13.70
2018,10,22,17,11,13.70
2018,10,22,17,12,13.60
2018,10,22,17,13,13.60
2018,10,22,17,14,13.50
2018,10,22,17,15,13.40
2018,10,22,17,16,13.30
2018,10,22,17,17,13.30
2018,10,22,17,18,13.30
2018,10,22,17,19,13.20
2018,10,22,17,20,13.20
2018,10,22,17,21,13.20
2018,10,22,17,22,13.10
2018,10,22,17,23,13.10
2018,10,22,17,24,13.10
2018,10,22,17,25,13.20
2018,10,22,17,26,13.20
2018,10,22,17,27,13.20
2018,10,22,17,28,13.10
2018,10,22,17,29,13.00
2018,10,22,17,30,12.90
2018,10,22,17,31,12.80
2018,10,22,17,32,12.70
2018,10,22,17,33,12.60
2018,10,22,17,34,12.50
2018,10,22,17,35,12.40
2018,10,22,17,36,12.40
2018,10,22,17,37,12.40
2018,10,22,17,38,12.40
2018,10,22,17,39,12.30
2018,10,22,17,40,12.30
2018,10,22,17,41,12.30
2018,10,22,17,42,12.20
2018,10,22,17,43,12.20
2018,10,22,17,44,12.20
2018,10,22,17,45,12.10
2018,10,22,17,46,12.10
2018,10,22,17,47,12.10
2018,10,22,17,48,12.10
2018,10,22,17,49,12.00